This demonstration page uses our WeatherBlox Daily Observations layout. Learn more.

Left ArrowRight Arrow

38.20091, -84.87328

Hourly Observations for June 30, 2022

Temp ( °F °C ) Dew Point ( °F °C ) Humidity (%) Winds ( mph kmh ) Pressure ( in mb ) Visibility ( mi km ) Precip ( " mm )
12:53 am 00:53 Clear 63 17.2 55 12.8 76 76 Calm 30.20 1023 10 16 0.00 0.00
1:53 am 01:53 Clear 61 16.1 55 12.8 81 81 Calm 30.20 1023 10 16 0.00 0.00
2:53 am 02:53 Clear 61 16.1 55 12.8 81 81 Calm 30.19 1023 10 16 0.00 0.00
3:53 am 03:53 Clear 59 15 55 12.8 87 87 NNW 3 6 30.19 1022 10 16 0.00 0.00
4:53 am 04:53 Clear 59 15 54 12.2 83 83 Calm 30.17 1022 10 16 0.00 0.00
5:53 am 05:53 Clear 58 14.4 54 12.2 87 87 Calm 30.18 1022 10 16 0.00 0.00
6:53 am 06:53 Sunny 57 13.9 54 12.2 90 90 Calm 30.18 1022 10 16 0.00 0.00
7:53 am 07:53 Sunny 65 18.3 57 13.9 76 76 Calm 30.17 1022 10 16 0.00 0.00
8:53 am 08:53 Sunny 71 21.7 58 14.4 63 63 SE 3 6 30.18 1022 10 16 0.00 0.00
9:53 am 09:53 Sunny 78 25.6 61 16.1 56 56 VRB 5 7 30.18 1022 10 16 0.00 0.00
10:53 am 10:53 Sunny 84 28.9 63 17.2 49 49 VRB 3 6 30.16 1022 10 16 0.00 0.00
11:53 am 11:53 Sunny 88 31.1 61 16.1 40 40 VRB 3 6 30.15 1021 10 16 0.00 0.00
12:53 pm 12:53 Sunny 90 32.2 57 13.9 33 33 undefined N/A 30.14 1021 10 16 0.00 0.00
1:53 pm 13:53 Sunny 92 33.3 57 13.9 31 31 SW 9 15 30.12 1020 10 16 0.00 0.00
2:53 pm 14:53 Sunny 92 33.3 59 15 33 33 VRB 3 6 30.09 1019 10 16 0.00 0.00
3:53 pm 15:53 Sunny 93 33.9 62 16.7 36 36 VRB 6 9 30.06 1018 10 16 0.00 0.00
4:53 pm 16:53 Mostly Sunny 92 33.3 63 17.2 38 38 SW 5 7 30.04 1017 10 16 0.00 0.00
5:53 pm 17:53 Mostly Sunny 90 32.2 65 18.3 44 44 WSW 7 11 30.03 1017 10 16 0.00 0.00
6:53 pm 18:53 Sunny 92 33.3 65 18.3 41 41 WNW 3 6 30.02 1017 10 16 0.00 0.00
7:53 pm 19:53 Mostly Cloudy 90 32.2 67 19.4 47 47 SW 6 9 30.02 1017 10 16 0.00 0.00
8:31 pm 20:31 Mostly Cloudy with Nearby Thunderstorms 88 31.1 69 20.6 54 54 SW 3 6 30.00 1016 10 16 0.00 0.00
8:46 pm 20:46 Cloudy 85 29.4 69 20.6 59 59 SW 17 28 30.03 1017 10 16 0.00 0.00
8:53 pm 20:53 Mostly Cloudy with Nearby Thunderstorms 84 28.9 69 20.6 61 61 SSW 21 33 30.04 1017 10 16 0.00 0.00
9:12 pm 21:12 Cloudy with Heavy Rain 78 25.6 70 21.1 76 76 S 12 19 30.04 1017 3 4 0.01 0.25
9:24 pm 21:24 Cloudy with Light Rain 79 26.1 70 21.1 74 74 SSE 6 9 30.02 1017 9 14 0.01 0.25
9:53 pm 21:53 Cloudy 76 24.4 71 21.7 85 85 Calm 30.04 1017 10 16 0.01 0.25
10:53 pm 22:53 Clear 75 23.9 71 21.7 88 88 SW 5 7 30.06 1018 10 16 0.00 0.00
11:53 pm 23:53 Mostly Cloudy 74 23.3 71 21.7 91 91 SSW 5 7 30.05 1018 10 16 0.00 0.00

Powered by AerisWeather